When you browse on this site, cookies collect data to enhance your experience and personalize the content and advertising you see.
Visit our Privacy Policy to learn more. By continuing to use the site, you agree to this use of cookies and data.
  • în România
  • Lista ţărilor
  • Pe 7 zile
  • Temperatura apei
  • Hartă satelitară
  • Meteo pe hartă
  • Widget-uri
  • user-avatar
    Intrare

    Meteo pe oră la Yubaykulevo

    Astăzi, 22 Februarie, Vineri

    Timp Temperatura Precipitaţii Vânt Presiune Umiditate
    00:00 -6°C° 0.3 mm 7 m/s 741 mmHg 91%
    01:00 -6°C° 0.3 mm 7 m/s 741 mmHg 91%
    02:00 -6°C° 0.1 mm 7 m/s 741 mmHg 90%
    03:00 -6°C° 0.1 mm 7 m/s 740 mmHg 90%
    04:00 -3°C° 0 mm 4 m/s 740 mmHg 91%
    05:00 -4°C° 0 mm 5 m/s 740 mmHg 90%
    06:00 -5°C° 0 mm 6 m/s 740 mmHg 90%
    07:00 -6°C° 0 mm 7 m/s 740 mmHg 89%
    08:00 -6°C° 0.1 mm 7 m/s 739 mmHg 90%
    09:00 -6°C° 0.1 mm 7 m/s 739 mmHg 90%
    10:00 -6°C° 0 mm 7 m/s 739 mmHg 90%
    11:00 -4°C° 0.3 mm 7 m/s 739 mmHg 90%
    12:00 -4°C° 0.3 mm 7 m/s 739 mmHg 90%
    13:00 -3°C° 0.3 mm 7 m/s 739 mmHg 90%
    14:00 -3°C° 0.4 mm 7 m/s 739 mmHg 90%
    15:00 -3°C° 0.4 mm 7 m/s 739 mmHg 90%
    16:00 -4°C° 0 mm 6 m/s 739 mmHg 90%
    17:00 -4°C° 0.3 mm 6 m/s 739 mmHg 90%
    18:00 -4°C° 0.3 mm 6 m/s 739 mmHg 91%
    19:00 -4°C° 0.3 mm 6 m/s 739 mmHg 91%
    20:00 -4°C° 0.1 mm 7 m/s 739 mmHg 91%
    21:00 -6°C° 0.1 mm 7 m/s 740 mmHg 90%
    22:00 -7°C° 0.1 mm 7 m/s 741 mmHg 90%
    23:00 -8°C° 0.2 mm 7 m/s 742 mmHg 89%

    Mâine, 23 Februarie, Sâmbătă

    Timp Temperatura Precipitaţii Vânt Presiune Umiditate
    00:00 -9°C° 0.2 mm 7 m/s 742 mmHg 88%
    01:00 -10°C° 0.2 mm 6 m/s 743 mmHg 87%
    02:00 -11°C° 0 mm 6 m/s 744 mmHg 88%
    03:00 -13°C° 0 mm 5 m/s 744 mmHg 89%
    04:00 -14°C° 0 mm 4 m/s 745 mmHg 91%
    05:00 -14°C° 0 mm 4 m/s 745 mmHg 92%
    06:00 -15°C° 0 mm 4 m/s 745 mmHg 93%
    07:00 -16°C° 0 mm 4 m/s 745 mmHg 95%
    08:00 -15°C° 0 mm 4 m/s 746 mmHg 94%
    09:00 -14°C° 0 mm 4 m/s 746 mmHg 93%
    10:00 -12°C° 0 mm 4 m/s 746 mmHg 92%
    11:00 -12°C° 0.1 mm 4 m/s 746 mmHg 92%
    12:00 -11°C° 0.1 mm 4 m/s 746 mmHg 92%
    13:00 -10°C° 0.1 mm 4 m/s 746 mmHg 92%
    14:00 -10°C° 0.1 mm 4 m/s 746 mmHg 92%
    15:00 -10°C° 0.1 mm 4 m/s 746 mmHg 92%
    16:00 -9°C° 0.1 mm 4 m/s 746 mmHg 92%
    17:00 -10°C° 0.1 mm 4 m/s 747 mmHg 93%
    18:00 -10°C° 0.1 mm 4 m/s 747 mmHg 94%
    19:00 -9°C° 0.1 mm 3 m/s 747 mmHg 95%
    20:00 -10°C° 0.1 mm 4 m/s 747 mmHg 95%
    21:00 -10°C° 0.1 mm 4 m/s 747 mmHg 95%
    22:00 -10°C° 0.1 mm 4 m/s 747 mmHg 95%
    23:00 -11°C° 0.1 mm 4 m/s 748 mmHg 95%

    Poimâine, 24 Februarie, Duminică

    Timp Temperatura Precipitaţii Vânt Presiune Umiditate
    00:00 -11°C° 0.1 mm 4 m/s 748 mmHg 95%
    01:00 -12°C° 0.1 mm 4 m/s 748 mmHg 95%
    02:00 -12°C° 0.1 mm 4 m/s 748 mmHg 95%
    03:00 -14°C° 0.1 mm 4 m/s 749 mmHg 95%
    04:00 -15°C° 0.1 mm 4 m/s 749 mmHg 95%
    05:00 -17°C° 0 mm 4 m/s 749 mmHg 96%
    06:00 -18°C° 0 mm 3 m/s 749 mmHg 97%
    07:00 -22°C° 0 mm 3 m/s 749 mmHg 98%
    08:00 -21°C° 0 mm 3 m/s 749 mmHg 95%
    09:00 -21°C° 0 mm 3 m/s 749 mmHg 93%
    10:00 -21°C° 0 mm 3 m/s 749 mmHg 90%
    11:00 -18°C° 0 mm 3 m/s 749 mmHg 89%
    12:00 -18°C° 0 mm 4 m/s 749 mmHg 88%
    13:00 -17°C° 0 mm 4 m/s 749 mmHg 87%
    14:00 -16°C° 0 mm 4 m/s 748 mmHg 87%
    15:00 -15°C° 0 mm 4 m/s 748 mmHg 88%
    16:00 -15°C° 0 mm 5 m/s 748 mmHg 89%
    17:00 -15°C° 0.1 mm 5 m/s 748 mmHg 91%
    18:00 -15°C° 0.1 mm 5 m/s 748 mmHg 92%
    19:00 -15°C° 0.1 mm 5 m/s 748 mmHg 93%
    20:00 -15°C° 0.1 mm 4 m/s 747 mmHg 93%
    21:00 -15°C° 0.1 mm 4 m/s 747 mmHg 94%
    22:00 -15°C° 0.1 mm 4 m/s 747 mmHg 94%
    23:00 -15°C° 0.1 mm 4 m/s 747 mmHg 95%

    25 Februarie, Luni

    Timp Temperatura Precipitaţii Vânt Presiune Umiditate
    00:00 -15°C° 0.1 mm 4 m/s 746 mmHg 95%
    01:00 -15°C° 0.1 mm 3 m/s 746 mmHg 95%
    02:00 -16°C° 0 mm 4 m/s 746 mmHg 96%
    03:00 -16°C° 0 mm 4 m/s 746 mmHg 96%
    04:00 -17°C° 0 mm 4 m/s 745 mmHg 96%
    05:00 -17°C° 0.1 mm 4 m/s 745 mmHg 96%
    06:00 -17°C° 0.1 mm 4 m/s 744 mmHg 96%
    07:00 -17°C° 0.1 mm 4 m/s 744 mmHg 96%
    08:00 -16°C° 0 mm 4 m/s 744 mmHg 96%
    09:00 -16°C° 0 mm 4 m/s 744 mmHg 96%
    10:00 -15°C° 0 mm 4 m/s 743 mmHg 95%
    11:00 -15°C° 0.1 mm 5 m/s 743 mmHg 95%
    12:00 -14°C° 0.1 mm 5 m/s 742 mmHg 94%
    13:00 -13°C° 0.1 mm 5 m/s 742 mmHg 94%
    14:00 -13°C° 0.1 mm 5 m/s 741 mmHg 94%
    15:00 -13°C° 0.1 mm 5 m/s 741 mmHg 93%
    16:00 -12°C° 0.1 mm 5 m/s 741 mmHg 93%
    17:00 -13°C° 0.1 mm 5 m/s 741 mmHg 93%
    18:00 -12°C° 0.1 mm 4 m/s 740 mmHg 94%
    19:00 -14°C° 0.1 mm 4 m/s 740 mmHg 94%
    20:00 -14°C° 0.1 mm 4 m/s 740 mmHg 94%
    21:00 -14°C° 0.1 mm 4 m/s 740 mmHg 95%
    22:00 -15°C° 0.1 mm 4 m/s 740 mmHg 95%
    23:00 -15°C° 0.1 mm 4 m/s 739 mmHg 95%

    26 Februarie, Marţi

    Timp Temperatura Precipitaţii Vânt Presiune Umiditate
    00:00 -14°C° 0.1 mm 3 m/s 739 mmHg 95%
    01:00 -15°C° 0.1 mm 3 m/s 739 mmHg 95%
    02:00 -15°C° 0 mm 3 m/s 739 mmHg 96%
    03:00 -16°C° 0 mm 3 m/s 739 mmHg 96%
    04:00 -16°C° 0 mm 3 m/s 739 mmHg 96%
    05:00 -16°C° 0 mm 3 m/s 739 mmHg 96%
    06:00 -16°C° 0 mm 3 m/s 738 mmHg 96%
    07:00 -16°C° 0 mm 3 m/s 738 mmHg 96%
    08:00 -16°C° 0 mm 3 m/s 738 mmHg 96%
    09:00 -15°C° 0 mm 3 m/s 738 mmHg 95%
    10:00 -14°C° 0 mm 3 m/s 738 mmHg 95%
    11:00 -13°C° 0 mm 3 m/s 738 mmHg 95%
    12:00 -13°C° 0 mm 3 m/s 738 mmHg 94%
    13:00 -12°C° 0 mm 3 m/s 737 mmHg 94%
    14:00 -12°C° 0 mm 3 m/s 737 mmHg 93%
    15:00 -10°C° 0 mm 3 m/s 737 mmHg 93%
    16:00 -10°C° 0 mm 3 m/s 737 mmHg 92%
    17:00 -12°C° 0 mm 3 m/s 737 mmHg 93%
    18:00 -12°C° 0 mm 3 m/s 737 mmHg 94%
    19:00 -10°C° 0 mm 2 m/s 737 mmHg 95%
    20:00 -12°C° 0 mm 2 m/s 737 mmHg 95%
    21:00 -12°C° 0 mm 2 m/s 737 mmHg 95%
    22:00 -12°C° 0 mm 2 m/s 737 mmHg 95%
    23:00 -13°C° 0 mm 3 m/s 737 mmHg 95%

    27 Februarie, Miercuri

    Timp Temperatura Precipitaţii Vânt Presiune Umiditate
    00:00 -13°C° 0 mm 3 m/s 737 mmHg 95%
    01:00 -13°C° 0 mm 3 m/s 737 mmHg 95%
    02:00 -13°C° 0.1 mm 3 m/s 737 mmHg 95%
    03:00 -13°C° 0.1 mm 3 m/s 737 mmHg 96%
    04:00 -13°C° 0.1 mm 3 m/s 736 mmHg 96%
    05:00 -13°C° 0.1 mm 3 m/s 736 mmHg 96%
    06:00 -13°C° 0.1 mm 3 m/s 736 mmHg 96%
    07:00 -14°C° 0.1 mm 3 m/s 736 mmHg 96%
    08:00 -14°C° 0.1 mm 4 m/s 736 mmHg 96%
    09:00 -14°C° 0.1 mm 4 m/s 736 mmHg 96%
    10:00 -14°C° 0.1 mm 4 m/s 735 mmHg 96%
    11:00 -12°C° 0.1 mm 4 m/s 735 mmHg 95%
    12:00 -11°C° 0.1 mm 4 m/s 735 mmHg 95%
    13:00 -10°C° 0.1 mm 4 m/s 735 mmHg 94%
    14:00 -8°C° 0 mm 3 m/s 734 mmHg 94%
    15:00 -8°C° 0 mm 3 m/s 734 mmHg 94%
    16:00 -7°C° 0 mm 3 m/s 734 mmHg 94%
    17:00 -8°C° 0.1 mm 3 m/s 733 mmHg 94%
    18:00 -8°C° 0.1 mm 3 m/s 733 mmHg 95%
    19:00 -9°C° 0.1 mm 3 m/s 733 mmHg 96%
    20:00 -9°C° 0.1 mm 3 m/s 733 mmHg 96%
    21:00 -9°C° 0.1 mm 3 m/s 733 mmHg 96%
    22:00 -9°C° 0.1 mm 3 m/s 732 mmHg 96%
    23:00 -9°C° 0.1 mm 3 m/s 732 mmHg 96%
    Arată mai mult